This demonstration page uses our WeatherBlox Daily Observations layout. Learn more.

Left ArrowRight Arrow

Hourly Observations for September 27, 2022

Temp ( °F °C ) Dew Point ( °F °C ) Humidity (%) Winds ( mph kmh ) Pressure ( in mb ) Visibility ( mi km ) Precip ( " mm )
12:54 am 00:54 Clear 50 10 40 4.4 68 68 WNW 3 6 30.10 1019 10 16 0.00 0.00
1:54 am 01:54 Clear 45 7.2 39 3.9 80 80 Calm 30.10 1019 10 16 0.00 0.00
2:54 am 02:54 Clear 49 9.4 42 5.6 77 77 WNW 3 6 30.11 1020 10 16 0.00 0.00
3:54 am 03:54 Clear 45 7.2 39 3.9 80 80 Calm 30.10 1019 10 16 0.00 0.00
4:54 am 04:54 Clear 45 7.2 39 3.9 80 80 Calm 30.11 1020 10 16 0.00 0.00
5:54 am 05:54 Clear 45 7.2 39 3.9 80 80 N 3 6 30.11 1020 10 16 0.00 0.00
6:54 am 06:54 Clear 43 6.1 39 3.9 86 86 Calm 30.15 1021 10 16 0.00 0.00
7:54 am 07:54 Sunny 48 8.9 40 4.4 73 73 Calm 30.16 1021 10 16 0.00 0.00
8:54 am 08:54 Sunny 53 11.7 42 5.6 66 66 Calm 30.17 1022 10 16 0.00 0.00
9:54 am 09:54 Sunny 62 16.7 43 6.1 50 50 SSE 6 9 30.16 1021 10 16 0.00 0.00
10:54 am 10:54 Sunny 70 21.1 44 6.7 39 39 VRB 7 11 30.16 1021 10 16 0.00 0.00
11:54 am 11:54 Sunny 75 23.9 43 6.1 32 32 E 5 7 30.16 1021 10 16 0.00 0.00
12:54 pm 12:54 Sunny 78 25.6 43 6.1 29 29 Calm 30.16 1022 10 16 0.00 0.00
1:54 pm 13:54 Sunny 79 26.1 42 5.6 27 27 E 7 11 30.16 1021 10 16 0.00 0.00
2:54 pm 14:54 Sunny 82 27.8 43 6.1 25 25 NNE 6 9 30.14 1021 10 16 0.00 0.00
3:54 pm 15:54 Sunny 82 27.8 43 6.1 25 25 ENE 9 15 30.14 1021 10 16 0.00 0.00
4:54 pm 16:54 Sunny 81 27.2 42 5.6 25 25 NNE 13 20 30.15 1021 10 16 0.00 0.00
5:54 pm 17:54 Sunny 79 26.1 42 5.6 27 27 NE 13 20 30.16 1022 10 16 0.00 0.00
6:54 pm 18:54 Sunny 73 22.8 41 5 31 31 NE 10 17 30.19 1022 10 16 0.00 0.00
7:54 pm 19:54 Clear 67 19.4 42 5.6 40 40 NE 10 17 30.21 1023 10 16 0.00 0.00
8:54 pm 20:54 Clear 63 17.2 42 5.6 46 46 NE 9 15 30.25 1024 10 16 0.00 0.00
9:54 pm 21:54 Clear 61 16.1 42 5.6 50 50 E 7 11 30.27 1025 10 16 0.00 0.00
10:54 pm 22:54 Clear 59 15 42 5.6 53 53 E 7 11 30.29 1026 10 16 0.00 0.00
11:54 pm 23:54 Clear 57 13.9 42 5.6 57 57 ENE 7 11 30.32 1027 10 16 0.00 0.00

Powered by AerisWeather